DW6610 Weather Reports


time (UTC)temp
C
wind
direction
speed
KPH
gust
KPH
rain 1hr
cm
rain 24hr
cm
rain mn
cm
humidity
%
barometer
mb
20260905010552 31 0 0.0 1.6 0.00 0.00 0.00 68 1014.1
20260905010100 32 0 0.0 1.6 0.00 0.00 0.00 66 1014.0
20260905005551 32 0 0.0 1.6 0.00 0.00 0.00 64 1014.0
20260905005051 32 0 0.0 1.6 0.00 0.00 0.00 61 1013.9
20260905004600 32 0 0.0 0.0 0.00 0.00 0.00 59 1014.0
20260905004051 33 0 0.0 1.6 0.00 0.00 0.00 57 1014.0
20260905003551 33 0 0.0 1.6 0.00 0.00 0.00 56 1013.9
20260905003104 33 0 0.0 1.6 0.00 0.00 0.00 55 1013.8
20260905002551 34 0 0.0 3.2 0.00 0.00 0.00 54 1013.8
20260905002052 34 62 0.0 3.2 0.00 0.00 0.00 54 1013.8
20260905001608 35 88 0.0 1.6 0.00 0.00 0.00 52 1013.6
20260905001051 35 0 0.0 1.6 0.00 0.00 0.00 52 1013.6
20260905000552 35 0 0.0 1.6 0.00 0.00 0.00 51 1013.6
20260904235551 36 89 0.0 3.2 0.00 0.00 0.00 50 1013.5
20260904235051 36 0 0.0 3.2 0.00 0.00 0.00 48 1013.3
20260904234601 36 0 0.0 3.2 0.00 0.00 0.00 47 1013.3
20260904234051 36 86 1.6 4.8 0.00 0.00 0.00 46 1013.3
20260904233554 37 272 1.6 4.8 0.00 0.00 0.00 45 1013.2
20260904233110 37 136 1.6 4.8 0.00 0.00 0.00 44 1013.1
20260904232551 38 0 1.6 4.8 0.00 0.00 0.00 43 1013.1
20260904232052 38 70 0.0 3.2 0.00 0.00 0.00 42 1013.1
20260904231602 38 92 1.6 3.2 0.00 0.00 0.00 42 1013.0
20260904231051 38 84 0.0 4.8 0.00 0.00 0.00 42 1013.0
20260904230551 38 86 1.6 6.4 0.00 0.00 0.00 42 1013.1
20260904230100 38 90 1.6 6.4 0.00 0.00 0.00 42 1013.2
20260904225551 38 20 1.6 6.4 0.00 0.00 0.00 42 1013.3
20260904225051 39 80 1.6 8.0 0.00 0.00 0.00 41 1013.2
20260904224602 39 20 1.6 8.0 0.00 0.00 0.00 42 1013.1
20260904224051 39 117 1.6 6.4 0.00 0.00 0.00 40 1013.2
20260904223552 39 91 1.6 6.4 0.00 0.00 0.00 41 1013.2
20260904223101 39 29 0.0 4.8 0.00 0.00 0.00 43 1013.3
20260904222552 38 117 1.6 6.4 0.00 0.00 0.00 44 1013.2
20260904222051 39 53 1.6 6.4 0.00 0.00 0.00 42 1013.2
20260904221605 39 122 1.6 6.4 0.00 0.00 0.00 45 1013.2
20260904221052 39 139 1.6 4.8 0.00 0.00 0.00 42 1013.2
20260904220551 40 91 1.6 4.8 0.00 0.00 0.00 43 1013.3
20260904220110 40 94 1.6 4.8 0.00 0.00 0.00 42 1013.2
20260904215550 39 88 1.6 4.8 0.00 0.00 0.00 43 1013.1
20260904215051 40 82 1.6 4.8 0.00 0.00 0.00 41 1013.2
20260904214559 39 35 1.6 4.8 0.00 0.00 0.00 41 1013.2
20260904214054 40 0 1.6 4.8 0.00 0.00 0.00 44 1013.2
20260904213551 39 0 3.2 6.4 0.00 0.00 0.00 45 1013.3
20260904213104 39 79 3.2 6.4 0.00 0.00 0.00 44 1013.5
20260904212555 39 111 1.6 4.8 0.00 0.00 0.00 45 1013.5
20260904212051 39 155 1.6 4.8 0.00 0.00 0.00 43 1013.5
20260904211559 39 0 1.6 6.4 0.00 0.00 0.00 45 1013.6
20260904211052 38 118 1.6 6.4 0.00 0.00 0.00 46 1013.7
20260904210551 38 258 0.0 6.4 0.00 0.00 0.00 45 1013.7
20260904210100 38 145 1.6 6.4 0.00 0.00 0.00 42 1013.9
20260904205555 38 113 1.6 6.4 0.00 0.00 0.00 46 1013.9
20260904205051 38 261 3.2 8.0 0.00 0.00 0.00 45 1014.0
20260904204603 39 132 3.2 8.0 0.00 0.00 0.00 43 1014.0
20260904204051 40 143 1.6 8.0 0.00 0.00 0.00 43 1014.0
20260904203551 40 95 0.0 6.4 0.00 0.00 0.00 47 1014.1
20260904203100 39 121 1.6 6.4 0.00 0.00 0.00 42 1014.2
20260904202551 39 161 1.6 4.8 0.00 0.00 0.00 44 1014.2
20260904202051 40 115 1.6 4.8 0.00 0.00 0.00 44 1014.3
20260904201623 40 71 0.0 6.4 0.00 0.00 0.00 44 1014.4
20260904201051 40 81 1.6 6.4 0.00 0.00 0.00 42 1014.5
20260904200551 39 82 1.6 6.4 0.00 0.00 0.00 43 1014.5
20260904200104 39 87 3.2 6.4 0.00 0.00 0.00 47 1014.8
20260904195552 38 46 1.6 4.8 0.00 0.00 0.00 44 1014.8
20260904195054 38 108 1.6 4.8 0.00 0.00 0.00 49 1015.0
20260904194601 38 149 1.6 6.4 0.00 0.00 0.00 47 1015.0
20260904194051 37 0 1.6 6.4 0.00 0.00 0.00 48 1015.1
20260904193551 37 179 1.6 6.4 0.00 0.00 0.00 48 1015.3
20260904193107 37 169 1.6 4.8 0.00 0.00 0.00 48 1015.5
20260904192551 37 162 0.0 9.7 0.00 0.00 0.00 51 1015.4
20260904192052 37 0 1.6 9.7 0.00 0.00 0.00 49 1015.5
20260904191557 38 79 3.2 6.4 0.00 0.00 0.00 47 1015.6
20260904191052 38 83 0.0 8.0 0.00 0.00 0.00 49 1015.6
20260904190552 38 94 1.6 8.0 0.00 0.00 0.00 49 1015.6
20260904190105 38 71 3.2 9.7 0.00 0.00 0.00 47 1015.7
20260904185551 38 91 3.2 11.3 0.00 0.00 0.00 49 1015.7
20260904185053 38 80 3.2 11.3 0.00 0.00 0.00 52 1015.7
20260904184559 38 83 1.6 8.0 0.00 0.00 0.00 49 1015.8
20260904184051 38 88 1.6 8.0 0.00 0.00 0.00 53 1015.8
20260904183550 38 146 3.2 8.0 0.00 0.00 0.00 51 1016.0
20260904183115 38 85 1.6 4.8 0.00 0.00 0.00 60 1016.0
20260904182551 38 162 1.6 4.8 0.00 0.00 0.00 52 1016.0
20260904182051 38 159 1.6 6.4 0.00 0.00 0.00 51 1016.1
20260904181600 38 126 1.6 6.4 0.00 0.00 0.00 56 1016.2
20260904181051 38 92 1.6 6.4 0.00 0.00 0.00 54 1016.2
20260904180551 38 147 1.6 6.4 0.00 0.00 0.00 51 1016.3
20260904180112 38 145 3.2 6.4 0.00 0.00 0.00 49 1016.5
20260904175552 38 96 0.0 4.8 0.00 0.00 0.00 55 1016.5
20260904175051 37 115 1.6 4.8 0.00 0.00 0.00 54 1016.5
20260904174610 37 165 0.0 6.4 0.00 0.00 0.00 52 1016.6
20260904174051 37 110 1.6 6.4 0.00 0.00 0.00 55 1016.6
20260904173551 37 121 3.2 8.0 0.00 0.00 0.00 55 1016.7
20260904173118 37 97 1.6 8.0 0.00 0.00 0.00 55 1016.6
20260904172554 37 107 1.6 6.4 0.00 0.00 0.00 54 1016.8
20260904172052 37 97 1.6 4.8 0.00 0.00 0.00 57 1016.9
20260904171606 36 0 1.6 8.0 0.00 0.00 0.00 55 1017.0
20260904171051 36 146 1.6 8.0 0.00 0.00 0.00 55 1017.1
20260904170554 36 98 3.2 6.4 0.00 0.00 0.00 55 1017.0
20260904170108 37 129 1.6 4.8 0.00 0.00 0.00 58 1017.1
20260904165553 36 75 1.6 6.4 0.00 0.00 0.00 56 1017.1
20260904165051 36 156 1.6 6.4 0.00 0.00 0.00 57 1017.1
20260904164604 37 162 1.6 6.4 0.00 0.00 0.00 56 1017.2
20260904164052 37 84 1.6 6.4 0.00 0.00 0.00 56 1017.2
20260904163551 37 74 0.0 6.4 0.00 0.00 0.00 59 1017.3
20260904163110 36 86 0.0 9.7 0.00 0.00 0.00 56 1017.2
20260904162552 36 79 1.6 9.7 0.00 0.00 0.00 59 1017.2
20260904162051 36 104 0.0 3.2 0.00 0.00 0.00 60 1017.3
20260904161616 36 53 0.0 8.0 0.00 0.00 0.00 60 1017.3
20260904161051 36 90 3.2 8.0 0.00 0.00 0.00 63 1017.3
20260904160551 36 178 1.6 4.8 0.00 0.00 0.00 61 1017.4
20260904160105 36 118 1.6 8.0 0.00 0.00 0.00 59 1017.4
20260904155551 35 102 3.2 8.0 0.00 0.00 0.00 58 1017.4
20260904155051 36 0 0.0 6.4 0.00 0.00 0.00 64 1017.4
20260904154603 35 124 1.6 6.4 0.00 0.00 0.00 60 1017.5
20260904154051 35 90 0.0 6.4 0.00 0.00 0.00 62 1017.4
20260904153551 35 116 1.6 6.4 0.00 0.00 0.00 63 1017.4
20260904153108 35 0 0.0 6.4 0.00 0.00 0.00 66 1017.4
20260904152551 35 138 3.2 6.4 0.00 0.00 0.00 66 1017.3
20260904152051 35 105 1.6 4.8 0.00 0.00 0.00 65 1017.3
20260904151602 35 84 1.6 3.2 0.00 0.00 0.00 67 1017.3
20260904151051 35 94 0.0 4.8 0.00 0.00 0.00 66 1017.2
20260904150551 34 137 1.6 6.4 0.00 0.00 0.00 68 1017.2
20260904150106 34 113 1.6 6.4 0.00 0.00 0.00 67 1017.2
20260904145553 34 0 1.6 6.4 0.00 0.00 0.00 66 1017.2
20260904145052 34 107 0.0 3.2 0.00 0.00 0.00 66 1017.1
20260904144621 33 98 0.0 4.8 0.00 0.00 0.00 70 1017.1
20260904144051 33 72 0.0 4.8 0.00 0.00 0.00 68 1017.2
20260904143552 33 0 1.6 4.8 0.00 0.00 0.00 68 1017.2
20260904143102 33 69 0.0 4.8 0.00 0.00 0.00 68 1017.2
20260904142552 33 59 0.0 3.2 0.00 0.00 0.00 67 1017.1
20260904142051 33 0 0.0 3.2 0.00 0.00 0.00 71 1017.1
20260904141604 32 141 0.0 3.2 0.00 0.00 0.00 72 1017.1
20260904141052 32 125 0.0 1.6 0.00 0.00 0.00 73 1017.1
20260904140552 32 114 0.0 1.6 0.00 0.00 0.00 72 1017.1
20260904140103 32 106 0.0 1.6 0.00 0.00 0.00 74 1017.3
20260904135552 31 77 0.0 1.6 0.00 0.00 0.00 76 1017.1
20260904135052 31 0 0.0 1.6 0.00 0.00 0.00 75 1017.1
20260904134608 31 82 0.0 1.6 0.00 0.00 0.00 75 1017.0
20260904134051 31 0 0.0 1.6 0.00 0.00 0.00 77 1017.0
20260904133551 30 72 0.0 1.6 0.00 0.00 0.00 78 1017.0
20260904133105 30 0 0.0 1.6 0.00 0.00 0.00 81 1017.0
20260904132552 29 0 0.0 1.6 0.00 0.00 0.00 82 1017.0
20260904132052 28 0 0.0 3.2 0.00 0.00 0.00 84 1016.9
20260904131605 27 0 0.0 3.2 0.00 0.00 0.00 86 1016.8
20260904131051 27 71 0.0 3.2 0.00 0.00 0.00 87 1016.9
20260904130551 26 70 0.0 3.2 0.00 0.00 0.00 89 1017.0
20260904125552 25 78 0.0 1.6 0.00 0.00 0.00 91 1016.9
20260904125052 25 0 0.0 1.6 0.00 0.00 0.00 93 1016.9
20260904124606 25 0 0.0 1.6 0.00 0.00 0.00 93 1016.9
20260904124057 24 77 0.0 1.6 0.00 0.00 0.00 94 1016.8
20260904123551 24 0 0.0 1.6 0.00 0.00 0.00 94 1016.8
20260904123102 23 0 0.0 1.6 0.00 0.00 0.00 95 1016.7
20260904122551 23 77 0.0 1.6 0.00 0.00 0.00 96 1016.7
20260904122050 23 0 0.0 1.6 0.00 0.00 0.00 96 1016.7
20260904121603 23 77 0.0 1.6 0.00 0.00 0.00 96 1016.6
20260904121056 23 0 0.0 0.0 0.00 0.00 0.00 96 1016.5
20260904120553 23 0 0.0 0.0 0.00 0.00 0.00 96 1016.4
20260904120118 23 0 0.0 1.6 0.00 0.00 0.00 96 1016.4
20260904115552 23 0 0.0 1.6 0.00 0.00 0.00 96 1016.3
20260904115052 23 0 0.0 1.6 0.00 0.00 0.00 96 1016.3
20260904114603 23 0 0.0 1.6 0.00 0.00 0.00 96 1016.3
20260904114052 23 0 0.0 1.6 0.00 0.00 0.00 96 1016.3
20260904113552 23 0 0.0 1.6 0.00 0.00 0.00 96 1016.1
20260904113107 23 0 0.0 1.6 0.00 0.00 0.00 96 1016.1
20260904112556 23 0 0.0 1.6 0.00 0.00 0.00 96 1016.0
20260904112056 23 77 0.0 1.6 0.00 0.00 0.00 97 1016.0
20260904111613 23 0 0.0 1.6 0.00 0.00 0.00 97 1016.0
20260904111052 23 77 0.0 1.6 0.00 0.00 0.00 97 1016.0
20260904110555 23 0 0.0 1.6 0.00 0.00 0.00 97 1016.0
20260904110106 23 0 0.0 1.6 0.00 0.00 0.00 97 1015.9
20260904105552 23 0 0.0 1.6 0.00 0.00 0.00 97 1015.9
20260904105052 23 0 0.0 1.6 0.00 0.00 0.00 97 1015.8
20260904104619 23 0 0.0 1.6 0.00 0.00 0.00 97 1015.9
20260904104051 23 0 0.0 1.6 0.00 0.00 0.00 97 1015.9
20260904103552 23 0 0.0 1.6 0.00 0.00 0.00 97 1015.8
20260904103106 23 0 0.0 1.6 0.00 0.00 0.00 97 1015.8
20260904102551 23 0 0.0 0.0 0.00 0.00 0.00 97 1015.8
20260904102051 23 0 0.0 0.0 0.00 0.00 0.00 97 1015.8
20260904101605 23 0 0.0 0.0 0.00 0.00 0.00 97 1015.8
20260904101051 23 0 0.0 0.0 0.00 0.00 0.00 96 1015.8
20260904100552 23 0 0.0 0.0 0.00 0.00 0.00 97 1015.8
20260904095552 23 0 0.0 0.0 0.00 0.00 0.00 97 1015.6
20260904095051 23 0 0.0 0.0 0.00 0.00 0.00 97 1015.7
20260904094613 23 0 0.0 0.0 0.00 0.00 0.00 96 1015.7
20260904094051 23 0 0.0 0.0 0.00 0.00 0.00 96 1015.6
20260904093554 23 0 0.0 0.0 0.00 0.00 0.00 96 1015.5
20260904093106 23 0 0.0 0.0 0.00 0.00 0.00 96 1015.6
20260904092551 23 0 0.0 0.0 0.00 0.00 0.00 96 1015.5
20260904092051 23 0 0.0 0.0 0.00 0.00 0.00 96 1015.5
20260904091604 23 0 0.0 0.0 0.00 0.00 0.00 96 1015.5
20260904091051 23 0 0.0 0.0 0.00 0.00 0.00 96 1015.5
20260904090553 23 0 0.0 0.0 0.00 0.00 0.00 96 1015.5
20260904090104 24 0 0.0 0.0 0.00 0.00 0.00 96 1015.5
20260904085551 24 0 0.0 0.0 0.00 0.00 0.00 96 1015.4
20260904085052 24 0 0.0 1.6 0.00 0.00 0.00 95 1015.3
20260904084603 24 0 0.0 1.6 0.00 0.00 0.00 95 1015.4
20260904084051 24 0 0.0 1.6 0.00 0.00 0.00 95 1015.4
20260904083553 24 0 0.0 0.0 0.00 0.00 0.00 95 1015.3
20260904083103 24 0 0.0 0.0 0.00 0.00 0.00 94 1015.2
20260904082552 24 0 0.0 1.6 0.00 0.00 0.00 94 1015.2
20260904082051 24 0 0.0 1.6 0.00 0.00 0.00 94 1015.2
20260904081642 24 0 0.0 0.0 0.00 0.00 0.00 94 1015.2
20260904081051 24 0 0.0 0.0 0.00 0.00 0.00 94 1015.1
20260904080551 24 0 0.0 0.0 0.00 0.00 0.00 94 1015.1
20260904080105 24 0 0.0 0.0 0.00 0.00 0.00 94 1015.2
20260904075553 24 0 0.0 0.0 0.00 0.00 0.00 94 1015.2
20260904075052 24 0 0.0 0.0 0.00 0.00 0.00 94 1015.1
20260904074617 25 0 0.0 1.6 0.00 0.00 0.00 94 1015.1
20260904074052 25 0 0.0 1.6 0.00 0.00 0.00 94 1015.1
20260904073552 25 0 0.0 1.6 0.00 0.00 0.00 94 1015.1
20260904073109 25 0 0.0 0.0 0.00 0.00 0.00 95 1015.2
20260904072552 25 0 0.0 0.0 0.00 0.00 0.00 94 1015.3
20260904072051 25 0 0.0 0.0 0.00 0.00 0.00 95 1015.3
20260904071601 25 0 0.0 0.0 0.00 0.00 0.00 95 1015.3
20260904071051 25 0 0.0 1.6 0.00 0.00 0.00 94 1015.2
20260904070552 25 0 0.0 1.6 0.00 0.00 0.00 94 1015.2
20260904070119 25 77 0.0 1.6 0.00 0.00 0.00 94 1015.2
20260904065551 25 77 0.0 3.2 0.00 0.00 0.00 94 1015.2
20260904065052 25 0 0.0 3.2 0.00 0.00 0.00 94 1015.3
20260904064603 25 0 0.0 1.6 0.00 0.00 0.00 94 1015.3
20260904064051 25 0 0.0 0.0 0.00 0.00 0.00 93 1015.2
20260904063551 25 0 0.0 0.0 0.00 0.00 0.00 93 1015.2
20260904063103 25 0 0.0 0.0 0.00 0.00 0.00 93 1015.2
20260904062552 25 0 0.0 1.6 0.00 0.00 0.00 92 1015.3
20260904062051 25 0 0.0 1.6 0.00 0.00 0.00 92 1015.2
20260904061606 25 0 0.0 0.0 0.00 0.00 0.00 93 1015.3
20260904061051 25 0 0.0 0.0 0.00 0.00 0.00 92 1015.3
20260904060552 25 0 0.0 0.0 0.00 0.00 0.00 92 1015.1
20260904060106 25 0 0.0 0.0 0.00 0.00 0.00 91 1015.1
20260904055551 26 0 0.0 0.0 0.00 0.00 0.00 91 1015.1
20260904055051 26 0 0.0 0.0 0.00 0.00 0.00 91 1015.2
20260904054608 26 0 0.0 0.0 0.00 0.00 0.00 90 1015.3
20260904054051 26 0 0.0 0.0 0.00 0.00 0.00 90 1015.4
20260904053551 26 0 0.0 0.0 0.00 0.00 0.00 90 1015.3
20260904053059 26 0 0.0 1.6 0.00 0.00 0.00 89 1015.2
20260904052552 26 0 0.0 1.6 0.00 0.00 0.00 88 1015.2
20260904052052 26 0 0.0 1.6 0.00 0.00 0.00 88 1015.2
20260904051607 26 0 0.0 0.0 0.00 0.00 0.00 88 1015.2
20260904051052 26 0 0.0 0.0 0.00 0.00 0.00 88 1015.2
20260904050553 26 0 0.0 0.0 0.00 0.00 0.00 88 1015.3
20260904050107 26 0 0.0 0.0 0.00 0.00 0.00 87 1015.3
20260904045551 26 0 0.0 0.0 0.00 0.00 0.00 88 1015.2
20260904045051 26 0 0.0 0.0 0.00 0.00 0.00 88 1015.3
20260904044602 26 0 0.0 0.0 0.00 0.00 0.00 88 1015.3
20260904044052 27 0 0.0 1.6 0.00 0.00 0.00 86 1015.4
20260904043551 27 0 0.0 1.6 0.00 0.00 0.00 86 1015.4
20260904043119 27 0 0.0 0.0 0.00 0.00 0.00 86 1015.3
20260904042552 27 0 0.0 0.0 0.00 0.00 0.00 85 1015.3
20260904042053 27 0 0.0 0.0 0.00 0.00 0.00 84 1015.4
20260904041606 27 0 0.0 0.0 0.00 0.00 0.00 82 1015.4
20260904041051 27 0 0.0 0.0 0.00 0.00 0.00 82 1015.4
20260904040551 27 0 0.0 0.0 0.00 0.00 0.00 82 1015.3
20260904040107 27 0 0.0 0.0 0.00 0.00 0.00 82 1015.4
20260904035551 27 0 0.0 0.0 0.00 0.00 0.00 81 1015.5
20260904035051 27 0 0.0 0.0 0.00 0.00 0.00 81 1015.5
20260904034605 27 0 0.0 0.0 0.00 0.00 0.00 80 1015.4
20260904034051 28 0 0.0 1.6 0.00 0.00 0.00 80 1015.5
20260904033552 28 0 0.0 4.8 0.00 0.00 0.00 79 1015.5
20260904033103 28 0 0.0 4.8 0.00 0.00 0.00 79 1015.5
20260904032550 28 56 0.0 4.8 0.00 0.00 0.00 79 1015.5
20260904032050 28 0 0.0 3.2 0.00 0.00 0.00 79 1015.5
20260904031603 28 0 0.0 4.8 0.00 0.00 0.00 79 1015.6
20260904031051 28 0 0.0 4.8 0.00 0.00 0.00 79 1015.5
20260904030551 28 0 1.6 8.0 0.00 0.00 0.00 79 1015.6
20260904025551 28 57 0.0 1.6 0.00 0.00 0.00 81 1015.7
20260904025052 28 0 0.0 0.0 0.00 0.00 0.00 81 1015.5
20260904024608 28 0 0.0 0.0 0.00 0.00 0.00 80 1015.5
20260904024054 28 0 0.0 0.0 0.00 0.00 0.00 80 1015.5
20260904023551 28 0 0.0 1.6 0.00 0.00 0.00 80 1015.4
20260904023103 28 0 0.0 1.6 0.00 0.00 0.00 79 1015.4
20260904022551 28 0 0.0 1.6 0.00 0.00 0.00 79 1015.3
20260904022052 28 0 0.0 0.0 0.00 0.00 0.00 81 1015.2
20260904021602 28 0 0.0 0.0 0.00 0.00 0.00 81 1015.2
20260904021051 28 0 0.0 0.0 0.00 0.00 0.00 81 1015.2
20260904020552 28 0 0.0 1.6 0.00 0.00 0.00 82 1015.1
20260904020104 29 0 0.0 1.6 0.00 0.00 0.00 81 1015.1
20260904015551 29 0 0.0 1.6 0.00 0.00 0.00 81 1015.0
20260904015051 29 91 0.0 1.6 0.00 0.00 0.00 81 1014.9
20260904014645 29 0 0.0 1.6 0.00 0.00 0.00 79 1014.9
20260904014052 30 0 0.0 1.6 0.00 0.00 0.00 79 1014.9
20260904013551 30 0 0.0 1.6 0.00 0.00 0.00 78 1014.9
20260904013103 30 0 0.0 1.6 0.00 0.00 0.00 77 1014.7
20260904012551 30 0 0.0 0.0 0.00 0.00 0.00 75 1014.7
20260904012051 30 0 0.0 0.0 0.00 0.00 0.00 76 1014.7
20260904011603 30 0 0.0 0.0 0.00 0.00 0.00 74 1014.7
20260904011054 30 0 0.0 0.0 0.00 0.00 0.00 74 1014.6